Location: Kalberh�ni
(46.4610°N, 7.2453°E)
Time: 18:25:43
(UTC+00:00)

Meteor 2-1 Rocket - Pass Details

Date: 29 October 2021
Orbit: 830 x 906 km, 81.3° (Epoch: 28 November)

Event Time Altitude Azimuth Distance (km) Brightness Sun altitude
Rises 17:19:49 0° 145° (SE) 3,406 7.1 -10.7°
Reaches altitude 10° 17:22:53 10° 128° (SE) 2,464 6.2 -11.3°
Maximum altitude 17:26:41 19° 85° (E) 1,892 5.4 -11.9°
Drops below altitude 10° 17:30:28 10° 41° (NE) 2,454 6.2 -12.6°
Sets 17:33:31 0° 25° (NNE) 3,388 7.0 -13.1°
